#Datum;Uhrzeit;WR;Pac;DaySum;Status;WR;Pac;DaySum;Status;Pdc1;Udc;Temp;WR;Pac;DaySum;Status;Pdc1;Udc;Temp;WR;Pac;DaySum;Status;Pdc1;Udc;Temp;WR;Pac;DaySum;Status;Pdc1;Pdc2;Udc1;Udc2;Temp;WR;Pac;DaySum;Status;Pdc1;Pdc2;Udc1;Udc2;Temp;WR;Pac;DaySum;Status;Pdc1;Udc;Temp;WR;Pac;DaySum;Status;Pdc1;Udc;Temp;WR;Pac;DaySum;Status;Pdc1;Udc;Temp
27.09.21;23:55:00;1;344;12575;0;2;0;19966;0;0;0;0;3;0;12434;0;0;0;0;4;0;17666;0;0;0;0;5;0;37637;0;0;0;0;0;0;6;0;28575;0;0;0;0;0;0;7;0;24729;0;0;0;0;8;0;24448;0;0;0;0;9;0;13282;0;0;0;0
27.09.21;23:50:00;1;375;12545;0;2;0;19966;0;0;0;0;3;0;12434;0;0;0;0;4;0;17666;0;0;0;0;5;0;37637;0;0;0;0;0;0;6;0;28575;0;0;0;0;0;0;7;0;24729;0;0;0;0;8;0;24448;0;0;0;0;9;0;13282;0;0;0;0
27.09.21;23:45:00;1;357;12513;0;2;0;19966;0;0;0;0;3;0;12434;0;0;0;0;4;0;17666;0;0;0;0;5;0;37637;0;0;0;0;0;0;6;0;28575;0;0;0;0;0;0;7;0;24729;0;0;0;0;8;0;24448;0;0;0;0;9;0;13282;0;0;0;0
27.09.21;23:40:00;1;597;12448;0;2;0;19966;0;0;0;0;3;0;12434;0;0;0;0;4;0;17666;0;0;0;0;5;0;37637;0;0;0;0;0;0;6;0;28575;0;0;0;0;0;0;7;0;24729;0;0;0;0;8;0;24448;0;0;0;0;9;0;13282;0;0;0;0
27.09.21;23:35:00;1;428;12410;0;2;0;19966;0;0;0;0;3;0;12434;0;0;0;0;4;0;17666;0;0;0;0;5;0;37637;0;0;0;0;0;0;6;0;28575;0;0;0;0;0;0;7;0;24729;0;0;0;0;8;0;24448;0;0;0;0;9;0;13282;0;0;0;0
27.09.21;23:30:00;1;1370;12373;0;2;0;19966;0;0;0;0;3;0;12434;0;0;0;0;4;0;17666;0;0;0;0;5;0;37637;0;0;0;0;0;0;6;0;28575;0;0;0;0;0;0;7;0;24729;0;0;0;0;8;0;24448;0;0;0;0;9;0;13282;0;0;0;0
27.09.21;23:25:00;1;2442;12239;0;2;0;19966;0;0;0;0;3;0;12434;0;0;0;0;4;0;17666;0;0;0;0;5;0;37637;0;0;0;0;0;0;6;0;28575;0;0;0;0;0;0;7;0;24729;0;0;0;0;8;0;24448;0;0;0;0;9;0;13282;0;0;0;0
27.09.21;23:20:00;1;2363;12037;0;2;0;19966;0;0;0;0;3;0;12434;0;0;0;0;4;0;17666;0;0;0;0;5;0;37637;0;0;0;0;0;0;6;0;28575;0;0;0;0;0;0;7;0;24729;0;0;0;0;8;0;24448;0;0;0;0;9;0;13282;0;0;0;0
27.09.21;23:15:00;1;2388;11840;0;2;0;19966;0;0;0;0;3;0;12434;0;0;0;0;4;0;17666;0;0;0;0;5;0;37637;0;0;0;0;0;0;6;0;28575;0;0;0;0;0;0;7;0;24729;0;0;0;0;8;0;24448;0;0;0;0;9;0;13282;0;0;0;0
27.09.21;23:10:00;1;977;11642;0;2;0;19966;0;0;0;0;3;0;12434;0;0;0;0;4;0;17666;0;0;0;0;5;0;37637;0;0;0;0;0;0;6;0;28575;0;0;0;0;0;0;7;0;24729;0;0;0;0;8;0;24448;0;0;0;0;9;0;13282;0;0;0;0
27.09.21;23:05:00;1;589;11580;0;2;0;19966;0;0;0;0;3;0;12434;0;0;0;0;4;0;17666;0;0;0;0;5;0;37637;0;0;0;0;0;0;6;0;28575;0;0;0;0;0;0;7;0;24729;0;0;0;0;8;0;24448;0;0;0;0;9;0;13282;0;0;0;0
27.09.21;23:00:00;1;482;11533;0;2;0;19966;0;0;0;0;3;0;12434;0;0;0;0;4;0;17666;0;0;0;0;5;0;37637;0;0;0;0;0;0;6;0;28575;0;0;0;0;0;0;7;0;24729;0;0;0;0;8;0;24448;0;0;0;0;9;0;13282;0;0;0;0
27.09.21;22:55:00;1;612;11490;0;2;0;19966;0;0;0;0;3;0;12434;0;0;0;0;4;0;17666;0;0;0;0;5;0;37637;2;0;0;0;0;0;6;0;28575;2;0;0;0;0;0;7;0;24729;0;0;0;0;8;0;24448;0;0;0;0;9;0;13282;0;0;0;0
27.09.21;22:50:00;1;572;11439;0;2;0;19966;0;0;0;0;3;0;12434;0;0;0;0;4;0;17666;0;0;0;0;5;0;37637;2;0;0;0;0;0;6;0;28575;2;0;0;0;0;0;7;0;24729;0;0;0;0;8;0;24448;0;0;0;0;9;0;13282;0;0;0;0
27.09.21;22:45:00;1;516;11391;0;2;0;19966;0;0;0;0;3;0;12434;0;0;0;0;4;0;17666;0;0;0;0;5;0;37637;2;0;0;0;0;0;6;0;28575;2;0;0;0;0;0;7;0;24729;0;0;0;0;8;0;24448;0;0;0;0;9;0;13282;0;0;0;0
27.09.21;22:40:00;1;570;11347;0;2;0;19966;0;0;0;0;3;0;12434;0;0;0;0;4;0;17666;0;0;0;0;5;0;37637;2;0;0;0;0;0;6;0;28575;2;0;0;0;0;0;7;0;24729;0;0;0;0;8;0;24448;0;0;0;0;9;0;13282;0;0;0;0
27.09.21;22:35:00;1;1961;11303;0;2;0;19966;0;0;0;0;3;0;12434;0;0;0;0;4;0;17666;0;0;0;0;5;0;37637;2;0;0;0;0;0;6;0;28575;2;0;0;0;0;0;7;0;24729;0;0;0;0;8;0;24448;0;0;0;0;9;0;13282;0;0;0;0
27.09.21;22:30:00;1;2261;11127;0;2;0;19966;0;0;0;0;3;0;12434;0;0;0;0;4;0;17666;0;0;0;0;5;0;37637;2;0;0;0;0;0;6;0;28575;2;0;0;0;0;0;7;0;24729;0;0;0;0;8;0;24448;0;0;0;0;9;0;13282;0;0;0;0
27.09.21;22:25:00;1;2244;10939;0;2;0;19966;0;0;0;0;3;0;12434;0;0;0;0;4;0;17666;0;0;0;0;5;0;37637;2;0;0;0;0;0;6;0;28575;2;0;0;0;0;0;7;0;24729;0;0;0;0;8;0;24448;0;0;0;0;9;0;13282;0;0;0;0
27.09.21;22:20:00;1;720;10752;0;2;0;19966;0;0;0;0;3;0;12434;0;0;0;0;4;0;17666;0;0;0;0;5;0;37637;2;0;0;0;0;0;6;0;28575;2;0;0;0;0;0;7;0;24729;0;0;0;0;8;0;24448;0;0;0;0;9;0;13282;0;0;0;0
27.09.21;22:15:00;1;512;10709;0;2;0;19966;0;0;0;0;3;0;12434;0;0;0;0;4;0;17666;0;0;0;0;5;0;37637;2;0;0;0;0;0;6;0;28575;2;0;0;0;0;0;7;0;24729;0;0;0;0;8;0;24448;0;0;0;0;9;0;13282;0;0;0;0
27.09.21;22:10:00;1;648;10664;0;2;0;19966;0;0;0;0;3;0;12434;0;0;0;0;4;0;17666;0;0;0;0;5;0;37637;2;0;0;0;0;0;6;0;28575;2;0;0;0;0;0;7;0;24729;0;0;0;0;8;0;24448;0;0;0;0;9;0;13282;0;0;0;0
27.09.21;22:05:00;1;870;10605;0;2;0;19966;0;0;0;0;3;0;12434;0;0;0;0;4;0;17666;0;0;0;0;5;0;37637;2;0;0;0;0;0;6;0;28575;2;0;0;0;0;0;7;0;24729;0;0;0;0;8;0;24448;0;0;0;0;9;0;13282;0;0;0;0
27.09.21;22:00:00;1;1430;10538;0;2;0;19966;0;0;0;0;3;0;12434;0;0;0;0;4;0;17666;0;0;0;0;5;0;37637;2;0;0;0;0;0;6;0;28575;2;0;0;0;0;0;7;0;24729;0;0;0;0;8;0;24448;0;0;0;0;9;0;13282;0;0;0;0
27.09.21;21:55:00;1;602;10429;0;2;0;19966;0;0;0;0;3;0;12434;0;0;0;0;4;0;17666;0;0;0;0;5;0;37637;2;0;0;0;0;0;6;0;28575;2;0;0;0;0;0;7;0;24729;0;0;0;0;8;0;24448;0;0;0;0;9;0;13282;0;0;0;0
27.09.21;21:50:00;1;553;10378;0;2;0;19966;0;0;0;0;3;0;12434;0;0;0;0;4;0;17666;0;0;0;0;5;0;37637;2;0;0;0;0;0;6;0;28575;2;0;0;0;0;0;7;0;24729;0;0;0;0;8;0;24448;0;0;0;0;9;0;13282;0;0;0;0
27.09.21;21:45:00;1;526;10332;0;2;0;19966;0;0;0;0;3;0;12434;0;0;0;0;4;0;17666;0;0;0;0;5;0;37637;2;0;0;0;0;0;6;0;28575;2;0;0;0;0;0;7;0;24729;0;0;0;0;8;0;24448;0;0;0;0;9;0;13282;0;0;0;0
27.09.21;21:40:00;1;469;10289;0;2;0;19966;0;0;0;0;3;0;12434;0;0;0;0;4;0;17666;0;0;0;0;5;0;37637;2;0;0;0;0;0;6;0;28575;2;0;0;0;0;0;7;0;24729;0;0;0;0;8;0;24448;0;0;0;0;9;0;13282;0;0;0;0
27.09.21;21:35:00;1;510;10250;0;2;0;19966;0;0;0;0;3;0;12434;0;0;0;0;4;0;17666;0;0;0;0;5;0;37637;2;0;0;0;0;0;6;0;28575;2;0;0;0;0;0;7;0;24729;0;0;0;0;8;0;24448;0;0;0;0;9;0;13282;0;0;0;0
27.09.21;21:30:00;1;571;10207;0;2;0;19966;0;0;0;0;3;0;12434;0;0;0;0;4;0;17666;0;0;0;0;5;0;37637;2;0;0;0;0;0;6;0;28575;2;0;0;0;0;0;7;0;24729;0;0;0;0;8;0;24448;0;0;0;0;9;0;13282;0;0;0;0
27.09.21;21:25:00;1;526;10162;0;2;0;19966;0;0;0;0;3;0;12434;0;0;0;0;4;0;17666;0;0;0;0;5;0;37637;2;0;0;0;0;0;6;0;28575;2;0;0;0;0;0;7;0;24729;0;0;0;0;8;0;24448;0;0;0;0;9;0;13282;0;0;0;0
27.09.21;21:20:00;1;798;10118;0;2;0;19966;0;0;0;0;3;0;12434;0;0;0;0;4;0;17666;0;0;0;0;5;0;37637;2;0;0;0;0;0;6;0;28575;2;0;0;0;0;0;7;0;24729;0;0;0;0;8;0;24448;0;0;0;0;9;0;13282;0;0;0;0
27.09.21;21:15:00;1;520;10044;0;2;0;19966;0;0;0;0;3;0;12434;0;0;0;0;4;0;17666;0;0;0;0;5;0;37637;2;0;0;0;0;0;6;0;28575;2;0;0;0;0;0;7;0;24729;0;0;0;0;8;0;24448;0;0;0;0;9;0;13282;0;0;0;0
27.09.21;21:10:00;1;1284;9993;0;2;0;19966;0;0;0;0;3;0;12434;0;0;0;0;4;0;17666;0;0;0;0;5;0;37637;2;0;0;0;0;0;6;0;28575;2;0;0;0;0;0;7;0;24729;0;0;0;0;8;0;24448;0;0;0;0;9;0;13282;0;0;0;0
27.09.21;21:05:00;1;1275;9887;0;2;0;19966;0;0;0;0;3;0;12434;0;0;0;0;4;0;17666;0;0;0;0;5;0;37637;2;0;0;0;0;0;6;0;28575;2;0;0;0;0;0;7;0;24729;0;0;0;0;8;0;24448;0;0;0;0;9;0;13282;0;0;0;0
27.09.21;21:00:00;1;1287;9779;0;2;0;19966;0;0;0;0;3;0;12434;0;0;0;0;4;0;17666;0;0;0;0;5;0;37637;2;0;0;0;0;0;6;0;28575;2;0;0;0;0;0;7;0;24729;0;0;0;0;8;0;24448;0;0;0;0;9;0;13282;0;0;0;0
27.09.21;20:55:00;1;1319;9672;0;2;0;19966;0;0;0;0;3;0;12434;0;0;0;0;4;0;17666;0;0;0;0;5;0;37637;2;0;0;0;0;0;6;0;28575;2;0;0;0;0;0;7;0;24729;0;0;0;0;8;0;24448;0;0;0;0;9;0;13282;0;0;0;0
27.09.21;20:50:00;1;1387;9559;0;2;0;19966;0;0;0;0;3;0;12434;0;0;0;0;4;0;17666;0;0;0;0;5;0;37637;2;0;0;0;0;0;6;0;28575;2;0;0;0;0;0;7;0;24729;0;0;0;0;8;0;24448;0;0;0;0;9;0;13282;0;0;0;0
27.09.21;20:45:00;1;1388;9443;0;2;0;19966;0;0;0;0;3;0;12434;0;0;0;0;4;0;17666;0;0;0;0;5;0;37637;2;0;0;0;0;0;6;0;28575;2;0;0;0;0;0;7;0;24729;0;0;0;0;8;0;24448;0;0;0;0;9;0;13282;0;0;0;0
27.09.21;20:40:00;1;1217;9326;0;2;0;19966;0;0;0;0;3;0;12434;0;0;0;0;4;0;17666;0;0;0;0;5;0;37637;2;0;0;0;0;0;6;0;28575;2;0;0;0;0;0;7;0;24729;0;0;0;0;8;0;24448;0;0;0;0;9;0;13282;0;0;0;0
27.09.21;20:35:00;1;816;9229;0;2;0;19966;0;0;0;0;3;0;12434;0;0;0;0;4;0;17666;0;0;0;0;5;0;37637;2;0;0;0;0;0;6;0;28575;2;0;0;0;0;0;7;0;24729;0;0;0;0;8;0;24448;0;0;0;0;9;0;13282;0;0;0;0
27.09.21;20:30:00;1;1049;9150;0;2;0;19966;0;0;0;0;3;0;12434;0;0;0;0;4;0;17666;0;0;0;0;5;0;37637;2;0;0;0;0;0;6;0;28575;2;0;0;0;0;0;7;0;24729;0;0;0;0;8;0;24448;0;0;0;0;9;0;13282;0;0;0;0
27.09.21;20:25:00;1;838;9058;0;2;0;19966;0;0;0;0;3;0;12434;0;0;0;0;4;0;17666;0;0;0;0;5;0;37637;2;0;0;0;0;0;6;0;28575;2;0;0;0;0;0;7;0;24729;0;0;0;0;8;0;24448;0;0;0;0;9;0;13282;0;0;0;0
27.09.21;20:20:00;1;1294;8992;0;2;0;19966;0;0;0;0;3;0;12434;0;0;0;0;4;0;17666;0;0;0;0;5;0;37637;2;0;0;0;0;0;6;0;28575;2;0;0;0;0;0;7;0;24729;0;0;0;0;8;0;24448;0;0;0;0;9;0;13282;0;0;0;0
27.09.21;20:15:00;1;1584;8853;0;2;0;19966;0;0;0;0;3;0;12434;0;0;0;0;4;0;17666;0;0;0;0;5;0;37637;2;0;0;0;0;0;6;0;28575;2;0;0;0;0;0;7;0;24729;0;0;0;0;8;0;24448;0;0;0;0;9;0;13282;0;0;0;0
27.09.21;20:10:00;1;1734;8708;0;2;0;19966;0;0;0;0;3;0;12434;0;0;0;0;4;0;17666;0;0;0;0;5;0;37637;2;0;0;0;0;0;6;0;28575;2;0;0;0;0;0;7;0;24729;0;0;0;0;8;0;24448;0;0;0;0;9;0;13282;0;0;0;0
27.09.21;20:05:00;1;2790;8586;0;2;0;19966;0;0;0;0;3;0;12434;0;0;0;0;4;0;17666;0;0;0;0;5;0;37637;2;0;0;0;0;0;6;0;28575;2;0;0;0;0;0;7;0;24729;0;0;0;0;8;0;24448;0;0;0;0;9;0;13282;0;0;0;0
27.09.21;20:00:00;1;1498;8430;0;2;0;19966;0;0;0;0;3;0;12434;0;0;0;0;4;0;17666;0;0;0;0;5;0;37637;2;0;0;0;0;0;6;0;28575;2;0;0;0;0;0;7;0;24729;0;0;0;0;8;0;24448;0;0;0;0;9;0;13282;0;0;0;0
27.09.21;19:55:00;1;1221;8312;0;2;0;19966;0;0;0;0;3;0;12434;0;0;0;0;4;0;17666;0;0;0;0;5;0;37637;2;0;0;0;0;0;6;0;28575;2;0;0;0;0;0;7;0;24729;0;0;0;0;8;0;24448;0;0;0;0;9;0;13282;0;0;0;0
27.09.21;19:50:00;1;4186;8113;0;2;0;19966;0;0;0;0;3;0;12434;0;0;0;0;4;0;17666;0;0;0;0;5;0;37637;2;0;0;0;0;0;6;0;28575;2;0;0;0;0;0;7;0;24729;0;0;0;0;8;0;24448;0;0;0;0;9;0;13282;0;0;0;0
27.09.21;19:45:00;1;618;7775;0;2;0;19966;0;0;0;0;3;0;12434;0;0;0;0;4;0;17666;0;0;0;0;5;0;37637;2;0;0;0;0;0;6;0;28575;2;0;0;0;0;0;7;0;24729;0;0;0;0;8;0;24448;0;0;0;0;9;0;13282;0;0;0;0
27.09.21;19:40:00;1;570;7724;0;2;0;19966;0;0;0;0;3;0;12434;0;0;0;0;4;0;17666;0;0;0;0;5;0;37637;2;0;0;0;0;0;6;0;28575;2;0;0;0;0;0;7;0;24729;0;0;0;0;8;0;24448;0;0;0;0;9;0;13282;0;0;0;0
27.09.21;19:35:00;1;538;7676;0;2;0;19966;0;0;0;0;3;0;12434;0;0;0;0;4;0;17666;0;0;0;0;5;0;37637;2;0;0;0;0;0;6;0;28575;2;0;0;0;0;0;7;0;24729;0;0;0;0;8;0;24448;0;0;0;0;9;0;13282;0;0;0;0
27.09.21;19:30:00;1;584;7631;0;2;0;19966;0;0;0;0;3;0;12434;0;0;0;0;4;0;17666;0;0;0;0;5;0;37637;2;0;0;0;0;0;6;0;28575;2;0;0;0;0;0;7;0;24729;0;0;0;0;8;0;24448;0;0;0;0;9;0;13282;0;0;0;0
27.09.21;19:25:00;1;723;7580;0;2;0;19966;0;0;0;0;3;0;12434;0;0;0;0;4;0;17666;0;0;0;0;5;0;37637;2;0;0;0;0;0;6;0;28575;2;0;0;0;0;0;7;0;24729;0;0;0;0;8;0;24448;0;0;0;0;9;0;13282;0;0;0;0
27.09.21;19:20:00;1;509;7526;0;2;0;19966;0;0;0;0;3;0;12434;0;0;0;0;4;0;17666;0;0;0;0;5;0;37637;2;0;0;0;0;0;6;0;28575;2;0;0;0;0;0;7;0;24729;0;0;0;0;8;0;24448;0;0;0;0;9;0;13282;0;0;0;0
27.09.21;19:15:00;1;457;7483;0;2;0;19966;0;0;0;0;3;0;12434;0;0;160;18;4;0;17666;0;0;0;0;5;0;37637;2;0;0;0;0;0;6;0;28575;2;0;0;0;0;0;7;0;24729;0;0;0;0;8;0;24448;0;0;0;0;9;0;13282;0;0;0;0
27.09.21;19:10:00;1;333;7446;0;2;0;19966;6;0;278;28;3;0;12434;6;0;322;30;4;0;17666;2;0;76;31;5;0;37637;2;0;0;0;0;0;6;0;28575;2;0;0;0;0;0;7;0;24729;0;0;0;0;8;0;24448;0;0;0;0;9;0;13282;0;0;0;0
27.09.21;19:05:00;1;315;7418;0;2;0;19966;6;0;314;29;3;0;12434;6;0;389;30;4;0;17666;1;0;116;32;5;0;37637;2;0;0;206;205;28;6;0;28575;2;0;0;0;0;0;7;0;24729;0;0;119;15;8;0;24448;0;0;128;15;9;0;13282;0;0;201;19
27.09.21;19:00:00;1;399;7391;0;2;0;19966;6;0;339;29;3;0;12434;6;2;416;31;4;0;17666;1;0;155;32;5;0;37637;26;0;0;366;419;38;6;0;28575;2;0;0;403;400;36;7;0;24729;6;0;307;31;8;0;24448;6;0;311;30;9;0;13282;6;0;325;27
27.09.21;18:55:00;1;423;7357;0;2;0;19966;6;0;355;30;3;0;12434;6;3;435;31;4;0;17666;1;0;184;33;5;0;37637;23;0;0;384;494;39;6;0;28575;26;0;0;515;506;36;7;0;24729;6;0;358;31;8;0;24448;6;0;362;31;9;0;13282;6;0;383;27
27.09.21;18:50:00;1;386;7323;0;2;0;19966;6;0;370;30;3;1;12434;6;3;447;32;4;0;17666;1;0;208;33;5;8;37637;1;0;0;387;606;40;6;0;28575;23;0;0;533;527;37;7;0;24729;6;1;393;32;8;0;24448;6;1;397;31;9;0;13282;6;0;431;27
27.09.21;18:45:00;1;734;7287;0;2;0;19966;6;0;381;31;3;3;12434;6;5;469;32;4;0;17666;3;0;207;34;5;56;37636;1;0;4;364;578;40;6;17;28575;1;0;0;535;523;37;7;0;24729;6;2;408;32;8;0;24448;6;2;417;32;9;0;13282;3;2;445;28
27.09.21;18:40:00;1;387;7235;0;2;0;19966;6;0;391;32;3;3;12434;4;11;464;32;4;0;17666;3;0;200;34;5;86;37631;4;0;12;355;563;41;6;46;28574;1;0;6;519;502;38;7;2;24729;6;4;438;33;8;0;24448;6;4;439;32;9;1;13282;6;3;478;28
27.09.21;18:35:00;1;406;7202;0;2;21;19966;6;44;370;33;3;3;12434;6;11;492;33;4;5;17666;3;5;200;35;5;103;37623;4;8;23;355;563;41;6;81;28570;4;0;17;492;477;38;7;1;24729;6;8;446;33;8;1;24448;6;8;446;33;9;2;13282;6;6;489;28
27.09.21;18:30:00;1;390;7168;0;2;75;19964;4;110;355;34;3;19;12433;6;35;441;34;4;22;17666;3;23;198;35;5;129;37614;4;21;34;355;563;41;6;101;28563;4;1;25;492;477;39;7;46;24729;4;80;372;34;8;23;24448;6;48;405;33;9;1;13282;6;5;506;29
27.09.21;18:25:00;1;396;7136;0;2;87;19958;4;123;355;34;3;42;12432;4;78;379;34;4;33;17664;3;34;197;35;5;145;37604;4;27;44;355;563;41;6;113;28554;4;3;32;492;477;39;7;57;24725;4;94;378;34;8;44;24447;4;83;402;33;9;2;13282;6;8;507;29
27.09.21;18:20:00;1;399;7102;0;2;120;19950;4;158;358;35;3;67;12428;4;105;447;35;4;59;17661;3;61;197;36;5;178;37591;4;46;57;355;563;41;6;135;28545;4;14;40;492;477;39;7;91;24720;4;129;372;34;8;65;24443;4;102;406;34;9;0;13281;6;0;540;30
27.09.21;18:15:00;1;710;7068;0;2;133;19940;4;171;351;36;3;75;12423;4;116;463;35;4;79;17657;3;82;199;36;5;207;37576;4;64;70;355;563;41;6;152;28533;4;27;51;492;477;39;7;109;24713;4;145;389;34;8;90;24438;4;128;386;34;9;5;13281;3;11;519;30
27.09.21;18:10:00;1;320;6978;0;2;165;19929;4;204;358;37;3;95;12416;4;134;475;36;4;100;17650;3;104;205;37;5;230;37559;4;74;83;355;563;42;6;172;28520;4;37;64;492;477;39;7;131;24704;4;169;398;35;8;117;24430;4;156;397;34;9;7;13281;6;12;526;31
27.09.21;18:05:00;1;415;6951;0;2;204;19916;4;245;354;38;3;112;12408;4;155;467;36;4;138;17642;5;144;209;37;5;255;37540;4;93;93;355;563;42;6;194;28506;4;46;74;492;477;39;7;168;24693;4;205;401;35;8;140;24420;4;181;415;35;9;21;13280;6;34;506;31
27.09.21;18:00:00;1;352;6917;0;2;219;19898;4;259;356;39;3;124;12399;4;162;424;37;4;156;17630;5;162;211;38;5;291;37518;4;105;108;355;563;42;6;226;28489;4;61;87;492;477;39;7;210;24679;4;245;386;36;8;176;24408;4;214;400;35;9;60;13278;4;89;442;32
27.09.21;17:55:00;1;350;6888;0;2;354;19879;4;400;358;40;3;196;12388;4;235;390;38;4;273;17616;5;284;216;39;5;408;37493;4;167;159;360;570;42;6;301;28470;4;98;125;492;477;39;7;385;24660;4;433;441;36;8;304;24393;4;345;391;36;9;80;13273;4;109;420;33
27.09.21;17:50:00;1;340;6859;0;2;1083;19850;4;1154;352;42;3;597;12372;4;651;407;39;4;868;17594;5;904;231;39;5;822;37457;4;386;338;385;613;42;6;604;28444;4;244;272;527;513;40;7;1088;24628;4;1160;451;36;8;922;24368;4;982;407;36;9;141;13267;4;170;352;34
27.09.21;17:45:00;1;302;6831;0;2;1224;19760;4;1304;359;43;3;669;12323;4;725;405;39;4;976;17522;5;1017;227;40;5;978;37386;4;474;406;381;631;43;6;737;28392;4;304;338;544;529;40;7;1294;24539;4;1373;449;37;8;1166;24293;4;1236;417;36;9;238;13255;4;274;354;34
27.09.21;17:40:00;1;380;6804;0;2;1691;19655;4;1786;369;44;3;924;12265;4;988;410;40;4;1382;17438;5;1439;229;40;5;1407;37298;4;710;585;398;645;43;6;1064;28325;4;454;483;569;537;40;7;1833;24430;4;1930;456;37;8;1709;24195;4;1797;432;37;9;578;13235;4;621;352;35
27.09.21;17:35:00;1;425;6772;0;2;1763;19514;4;1862;371;44;3;958;12188;4;1022;403;40;4;1450;17323;5;1510;229;40;5;1580;37180;4;799;659;405;645;43;6;1189;28236;4;525;545;570;535;40;7;1936;24277;4;2034;454;37;8;1844;24052;4;1936;434;37;9;690;13187;4;737;358;36
27.09.21;17:30:00;1;323;6743;0;2;1714;19367;4;1813;372;45;3;930;12108;4;994;408;40;4;1399;17202;5;1458;228;41;5;1667;37052;4;850;706;397;641;43;6;1293;28139;4;575;602;563;535;40;7;2123;24116;4;2235;451;37;8;2077;23898;4;2185;447;37;9;828;13129;4;880;366;36
27.09.21;17:25:00;1;318;6717;0;2;2050;19222;4;2160;366;46;3;1137;12030;4;1210;410;41;4;1677;17084;5;1747;226;41;5;2078;36908;4;1071;889;402;647;43;6;1587;28030;4;730;743;569;549;40;7;2167;23939;4;2281;452;37;8;2155;23725;4;2268;447;37;9;916;13060;4;975;393;37
27.09.21;17:20:00;1;246;6694;0;2;2232;19052;4;2352;374;46;3;1211;11935;4;1284;408;41;4;1787;16944;5;1861;228;41;5;2419;36733;4;1278;1034;401;655;44;6;1834;27897;4;862;868;576;543;40;7;2435;23761;4;2561;451;38;8;2390;23547;4;2515;450;37;9;1093;12984;4;1160;423;38
27.09.21;17:15:00;1;365;6674;0;2;2203;18867;4;2326;375;46;3;1191;11834;4;1265;414;41;4;1794;16796;5;1868;224;41;5;2680;36537;4;1415;1154;402;653;44;6;1994;27747;4;950;947;568;532;40;7;2723;23558;4;2854;449;38;8;2670;23348;4;2811;455;37;9;1284;12894;4;1366;447;38
27.09.21;17:10:00;1;450;6632;0;2;2710;18687;4;2860;383;45;3;1335;11738;4;1420;443;41;4;2241;16650;5;2335;232;41;5;3278;36303;4;1746;1425;405;653;44;6;2492;27572;4;1205;1197;574;550;40;7;3029;23330;4;3178;454;38;8;2958;23125;4;3105;452;38;9;1486;12786;4;1579;474;39
27.09.21;17:05:00;1;325;6592;0;2;2027;18461;4;2143;380;44;3;964;11626;4;1039;515;40;4;1681;16463;5;1751;232;41;5;2670;36023;4;1405;1149;403;649;44;6;2032;27362;4;966;962;573;542;40;7;2886;23082;4;3024;457;38;8;2977;22883;4;3124;436;38;9;1641;12666;4;1737;493;38
27.09.21;17:00:00;1;627;6549;0;2;995;18289;4;1068;377;44;3;627;11544;4;691;485;40;4;818;16317;5;852;228;41;5;1506;35809;4;751;640;391;636;44;6;1171;27198;4;517;539;555;535;41;7;1043;22835;4;1111;444;38;8;1032;22630;4;1100;440;38;9;542;12527;4;600;512;38
27.09.21;16:55:00;1;376;6503;0;2;827;18205;4;895;372;45;3;533;11492;4;591;487;41;4;688;16249;5;716;224;41;5;1312;35686;4;638;546;387;637;45;6;1000;27103;4;428;463;548;527;41;7;897;22747;4;956;430;39;8;881;22543;4;941;431;38;9;460;12481;4;511;480;38
27.09.21;16:50:00;1;378;6472;0;2;664;18137;4;725;360;47;3;433;11448;4;487;455;41;4;588;16192;5;612;221;42;5;1078;35580;4;518;454;379;621;45;6;794;27023;4;341;356;538;519;41;7;824;22673;4;886;426;39;8;803;22471;4;862;424;39;9;388;12443;4;438;492;39
27.09.21;16:45:00;1;396;6440;0;2;2491;18082;4;2634;378;49;3;1330;11412;4;1412;420;43;4;1818;16143;5;1894;223;43;5;3016;35499;4;1606;1311;399;642;45;6;2123;26962;4;1014;1015;561;531;41;7;2249;22605;4;2366;447;40;8;2128;22404;4;2251;439;39;9;1184;12410;4;1266;492;40
27.09.21;16:40:00;1;285;6409;0;2;3082;17881;4;3249;376;49;3;1613;11304;4;1705;433;43;4;2307;15996;5;2403;229;43;5;3948;35232;4;2124;1719;406;658;45;6;2971;26764;4;1453;1433;577;549;41;7;3545;22420;4;3725;453;40;8;3480;22230;4;3657;447;40;9;1903;12313;4;2021;505;41
27.09.21;16:35:00;1;286;6385;0;2;1336;17624;4;1428;370;48;3;779;11170;4;844;467;42;4;1147;15804;5;1195;226;43;5;1953;34901;4;1009;834;394;629;46;6;1464;26515;4;662;697;548;540;42;7;1310;22126;4;1388;423;40;8;1273;21944;4;1349;414;40;9;740;12156;4;804;476;40
27.09.21;16:30:00;1;298;6360;0;2;1723;17507;4;1833;372;51;3;916;11103;4;980;396;43;4;1351;15705;5;1407;225;45;5;2373;34760;4;1237;1022;390;633;46;6;1802;26404;4;842;860;550;531;42;7;1474;22010;4;1568;442;41;8;1440;21830;4;1533;435;40;9;765;12089;4;831;485;41
27.09.21;16:25:00;1;328;6335;0;2;2075;17367;4;2200;383;51;3;1272;11029;4;1352;425;44;4;1826;15596;5;1902;225;45;5;3210;34544;4;1711;1392;395;646;46;6;2597;26242;4;1268;1245;569;535;42;7;2998;21889;4;3157;450;41;8;3097;21713;4;3255;457;41;9;1728;12026;4;1832;488;42
27.09.21;16:20:00;1;288;6308;0;2;2463;17197;4;2605;367;52;3;1296;10924;4;1380;440;44;4;1846;15445;5;1923;226;45;5;3099;34238;4;1651;1342;397;643;47;6;2793;26013;4;1372;1342;580;537;42;7;2452;21632;4;2592;446;41;8;2249;21448;4;2370;434;41;9;1192;11880;4;1274;480;42
27.09.21;16:15:00;1;317;6284;0;2;2292;16984;4;2428;375;51;3;1363;10811;4;1447;443;44;4;1877;15284;5;1955;225;46;5;3041;33953;4;1602;1311;396;638;47;6;2231;25792;4;1075;1062;564;534;42;7;3174;21419;4;3339;446;42;8;3119;21254;4;3280;458;41;9;1744;11776;4;1853;497;42
27.09.21;16:10:00;1;339;6257;0;2;1777;16792;4;1883;365;53;3;940;10700;4;1012;450;45;4;1312;15131;5;1366;220;47;5;2331;33698;4;1224;1003;391;626;48;6;1918;25596;4;905;909;544;541;43;7;1954;21163;4;2070;433;42;8;2017;21004;4;2126;409;42;9;1279;11638;4;1362;479;43
27.09.21;16:05:00;1;357;6229;0;2;2792;16642;4;2950;371;55;3;1610;10620;4;1707;453;46;4;2474;15019;5;2577;219;48;5;4287;33485;4;2305;1886;391;630;48;6;3168;25433;4;1546;1536;563;545;43;7;1934;21001;4;2040;414;43;8;1996;20838;4;2111;407;42;9;1200;11534;4;1284;499;44
27.09.21;16:00:00;1;299;6200;0;2;3648;16400;4;3847;362;55;3;2126;10481;4;2233;416;46;4;3090;14808;5;3219;219;48;5;5455;33115;4;2978;2400;390;629;48;6;4151;25151;4;2073;2022;561;539;43;7;4084;20847;4;4291;425;43;8;4021;20679;4;4221;424;43;9;2256;11440;4;2384;477;45
27.09.21;15:55:00;1;410;6175;0;2;3616;16097;4;3811;363;55;3;2117;10304;4;2225;417;46;4;3117;14551;5;3247;221;48;5;5488;32661;4;3005;2417;394;622;48;6;3753;24806;4;1828;1855;559;538;43;7;4191;20515;4;4402;436;43;8;4191;20354;4;4399;423;43;9;2347;11255;4;2476;472;45
27.09.21;15:50:00;1;462;6140;0;2;3726;15794;4;3932;365;55;3;2223;10127;4;2340;425;47;4;3252;14291;5;3388;221;48;5;5767;32228;4;3160;2544;390;624;48;6;4400;24472;4;2207;2152;557;537;43;7;4468;20173;4;4690;423;43;8;4417;20009;4;4640;427;43;9;2442;11061;4;2579;476;46
27.09.21;15:45:00;1;482;6102;0;2;3805;15484;4;4014;365;55;3;2270;9942;4;2390;425;46;4;3332;14021;5;3471;218;48;5;6035;31746;4;3314;2672;389;625;48;6;4600;24105;4;2301;2210;556;536;43;7;4688;19804;4;4926;423;43;8;4656;19644;4;4889;428;43;9;2571;10859;4;2721;476;46
27.09.21;15:40:00;1;420;6064;0;2;3833;15169;4;4037;359;54;3;2281;9754;4;2394;419;46;4;3372;13744;5;3513;219;48;5;6178;31248;4;3371;2740;386;630;48;6;4687;23725;4;2360;2294;553;535;43;7;4709;19411;4;4938;422;43;8;4656;19253;4;4884;430;43;9;2577;10644;4;2720;478;46
27.09.21;15:35:00;1;356;6029;0;2;3894;14850;4;4105;361;54;3;2328;9564;4;2443;424;46;4;3414;13464;5;3556;220;48;5;6323;30731;4;3464;2804;385;625;47;6;4791;23332;4;2411;2350;551;533;43;7;4808;19020;4;5040;428;43;8;4789;18867;4;5025;430;42;9;2654;10430;4;2798;471;45
27.09.21;15:30:00;1;335;5999;0;2;3328;14526;4;3506;359;53;3;1863;9371;4;1963;424;45;4;2811;13180;5;2928;214;47;5;5322;30203;4;2917;2317;379;613;47;6;4063;22932;4;2045;1984;544;527;43;7;4223;18620;4;4433;428;42;8;4000;18469;4;4205;424;42;9;2288;10209;4;2421;490;45
27.09.21;15:25:00;1;338;5972;0;2;3329;14245;4;3511;363;53;3;1874;9212;4;1974;422;46;4;2726;12940;5;2840;216;47;5;5311;29722;4;2910;2337;382;621;47;6;4649;22566;4;2345;2289;547;523;42;7;3788;18264;4;3979;431;42;8;3876;18131;4;4057;420;42;9;2125;10016;4;2244;481;45
27.09.21;15:20:00;1;348;5943;0;2;4093;13955;4;4317;374;52;3;2482;9045;4;2605;435;45;4;3581;12698;5;3730;217;47;5;6907;29207;4;3807;3069;389;626;46;6;5236;22176;4;2649;2574;549;536;42;7;4958;17928;4;5198;423;42;8;4933;17790;4;5168;425;42;9;2733;9828;4;2881;474;45
27.09.21;15:15:00;1;347;5914;0;2;3935;13614;4;4147;375;52;3;2440;8838;4;2561;432;45;4;3519;12400;5;3666;221;46;5;6910;28631;4;3805;3070;390;631;46;6;5277;21739;4;2659;2610;545;545;42;7;5114;17516;4;5365;420;42;8;5076;17379;4;5322;436;42;9;2816;9600;4;2966;472;45
27.09.21;15:10:00;1;311;5885;0;2;4259;13282;4;4487;374;49;3;2647;8633;4;2778;461;44;4;3775;12104;5;3932;225;45;5;7335;28067;4;4047;3257;396;645;46;6;5576;21314;4;2822;2744;563;548;42;7;5347;17089;4;5622;442;42;8;5311;16955;4;5575;439;41;9;2943;9365;4;3107;490;43
27.09.21;15:05:00;1;376;5859;0;2;1527;12927;4;1615;368;47;3;980;8413;4;1054;474;43;4;1296;11790;5;1349;219;45;5;2711;27519;4;1440;1177;386;621;46;6;2084;20889;4;988;1002;559;535;42;7;2751;16647;4;2900;437;42;8;2748;16518;4;2891;433;41;9;1527;9122;4;1632;501;42
27.09.21;15:00:00;1;454;5825;0;2;786;12810;4;851;355;50;3;497;8338;4;557;465;44;4;644;11692;5;670;212;46;5;1598;27313;4;806;681;377;604;47;6;1202;20732;4;538;562;517;508;43;7;1087;16418;4;1160;428;42;8;1074;16286;4;1148;427;42;9;567;8994;4;625;480;43
27.09.21;14:55:00;1;421;5787;0;2;3689;12744;4;3889;365;53;3;1862;8296;4;1970;458;46;4;2529;11638;5;2634;215;47;5;5251;27176;4;2866;2324;381;618;47;6;3977;20629;4;1993;1946;541;529;43;7;4016;16327;4;4220;427;43;8;4671;16197;4;4910;440;42;9;2766;8946;4;2926;482;44